Tracking 30261 objects as of 18-Feb-2025
HD Live streaming from Space Station
objects crossing your sky now

STARLINK-5256

Track STARLINK-5256 now!
10-day predictions
STARLINK-5256 is classified as:


NORAD ID: 54175
Int'l Code: 2022-141U
Perigee: 545.8 km
Apogee: 548.1 km
Inclination: 53.2 °
Period: 95.4 minutes
Semi major axis: 6917 km
RCS: Unknown
Launch date: October 28, 2022
Source: United States (US)
Launch site: AIR FORCE WESTERN TEST RANGE (AFWTR)
Your satellite tracking list
Your tracking list is empty




NASA's NSSDC Master Catalog

Two Line Element Set (TLE):
1 54175U 22141U   25049.07471002 -.00002282  00000-0 -12540-3 0  9994
2 54175  53.2170 290.7347 0001656  92.6780 267.4402 15.08821604127790
Source of the keplerian elements: AFSPC